Weather Service Report


373 
ASCA42 TJSJ 300010
RWRPR 
PUERTO RICO/U.S. VIRGIN ISLANDS HOURLY WEATHER ROUNDUP
NATIONAL WEATHER SERVICE SAN JUAN PR
800 PM AST FRI APR 29 2016

PRZ001-004-300100-
PUERTO RICO
  
CITY           SKY/WX    TMP DP  RH WIND       PRES   REMARKS
SAN JUAN LMM   MOCLDY    79  72  78 CALM      29.91R                  
AGUADILLA      PTCLDY    75  70  83 CALM      29.93R                  
CEIBA          CLEAR     75  73  94 SW5       29.95R                  
$$

PRZ006-007-300100-
U.S. VIRGIN ISLANDS
  
CITY           SKY/WX    TMP DP  RH WIND       PRES   REMARKS
CHARLOTTE AMA  MOCLDY    82  77  83 SE9       29.92R HX  91           
CHRISTIANSTED  PTCLDY    82  75  78 SE10      29.92S                  
$$

HOURLY WEATHER ROUNDUP FOR THE NEWS MEDIA
  
CITY           SKY/WX    TMP DP  RH WIND       PRES   REMARKS
ORLANDO        PTCLDY    84  71  65 E13       29.94R THUNDER          
NEW YORK       LGT RAIN  48  37  65 E13       30.11R                  
NEWARK         CLOUDY    50  36  58 E9        30.09S                  
CHICAGO        CLOUDY    45  38  76 NE10      30.12R                  
HARTFORD       MOCLDY    45  34  65 E13       30.13R                  
BOSTON         MOCLDY    47  31  53 SE14      30.13S                  
DALLAS         CLOUDY    74  70  87 SE10      29.54S FOG              
PHILADELPHIA   CLOUDY    50  42  74 NE6       30.09R                  
LOS ANGELES    PTSUNNY   62  53  72 W15       29.95F                  
WASHINGTON DC  DRIZZLE   54  49  83 NE7       30.05R                  

Return to Home page


Western Regional Climate Center, wrcc@dri.edu